Wind_Speed
32 34 34 34 35 36 37 37 37 37 38 40 40 40 39 39 40 40 40 41 40 40 39 39 39 39 38 38 38 37 36 36 36 36 36 35 36 36 36 36 36 35 35 35
31 32 32 33 34 36 36 37 38 38 38 40 40 40 39 39 39 40 41 41 41 40 40 39 39 39 39 38 38 38 37 36 36 37 37 36 36 36 37 37 37 37 37 36
30 30 31 32 32 34 34 34 35 37 37 38 39 40 38 38 38 39 40 40 40 39 39 39 39 39 39 38 37 37 37 37 37 37 37 37 37 36 37 38 38 38 38 38
29 29 30 30 30 32 33 32 33 34 36 37 37 38 36 35 36 37 38 38 38 38 39 39 39 39 39 39 38 37 37 37 37 38 38 38 37 37 37 38 38 38 38 39
27 28 29 29 29 29 30 30 30 30 32 35 35 37 36 34 34 34 35 36 36 36 37 37 37 37 37 37 38 37 37 36 36 37 38 38 38 37 37 37 38 38 39 38
26 27 28 28 28 28 28 28 29 29 30 32 31 34 34 32 32 32 32 33 34 34 35 36 36 37 37 37 36 36 36 36 36 36 37 38 38 38 38 38 38 38 39 39
26 27 27 28 27 27 26 26 28 29 30 30 28 31 30 28 30 31 31 32 33 33 33 34 34 35 36 36 35 36 35 36 35 36 37 38 38 37 37 38 38 38 39 40
26 25 26 27 27 27 27 26 27 28 28 28 28 28 26 26 27 29 30 30 31 32 32 33 34 34 34 35 35 35 36 36 36 37 38 38 38 38 38 38 38 39 39 39
25 24 23 24 25 26 26 26 26 27 28 28 27 26 24 24 25 27 28 29 29 30 30 31 33 33 33 34 34 34 35 35 35 36 37 38 38 38 38 39 39 39 39 40
26 25 23 24 25 25 26 24 24 26 26 27 27 25 23 22 23 25 26 26 27 28 29 29 30 31 32 33 34 34 35 35 35 36 37 37 38 38 39 40 40 40 40 40
25 25 24 24 25 25 25 24 24 24 25 25 26 25 23 22 23 24 25 26 27 27 28 28 29 30 31 32 33 33 34 34 35 35 36 37 38 39 39 39 39 40 40 40
25 25 24 24 24 25 26 25 24 25 25 25 25 24 24 24 23 24 25 25 26 27 28 28 29 29 30 31 32 33 34 35 35 36 36 37 37 38 39 39 40 40 41 40
24 25 25 25 25 25 25 25 25 25 26 26 25 24 24 24 24 25 25 25 26 27 27 28 29 29 30 31 32 33 33 34 34 35 36 37 38 38 38 39 40 40 40 40
26 26 26 26 26 26 26 26 26 26 26 25 25 25 23 24 26 26 27 26 26 27 27 28 28 28 29 30 31 32 33 33 34 34 35 36 36 37 37 38 39 39 40 40
26 27 27 27 26 27 27 27 27 28 27 26 25 25 25 26 26 27 27 28 28 29 29 29 29 28 29 30 30 31 32 33 34 34 35 36 36 37 37 37 37 38 39 39
27 28 27 28 27 28 28 27 28 29 28 27 27 25 25 27 27 27 28 29 30 30 30 29 29 29 29 30 29 30 31 32 32 34 35 35 36 36 36 36 37 38 38 38
27 27 27 28 28 29 29 27 28 28 27 28 27 25 26 27 28 28 28 29 29 30 31 31 30 29 29 30 29 29 30 31 31 32 33 34 35 36 36 36 36 37 37 37
27 26 26 27 28 29 27 27 28 28 28 29 27 27 27 27 27 28 28 28 28 30 30 31 31 30 29 29 29 30 30 31 31 32 32 33 34 35 35 35 36 36 36 36
26 26 26 27 28 27 26 26 26 27 27 28 27 27 27 27 27 28 28 28 28 28 29 30 31 31 30 30 30 30 31 31 31 31 32 32 32 33 34 34 35 35 36 36
26 27 27 27 28 27 26 25 25 26 26 26 26 26 26 27 27 27 28 28 28 28 28 29 30 30 30 30 30 30 30 30 30 31 32 32 32 33 33 33 34 34 35 36
24 26 26 26 26 26 24 24 23 24 25 25 26 25 25 26 26 26 27 27 28 28 28 28 28 29 29 30 29 29 29 29 29 30 31 32 32 32 33 33 33 33 33 34
23 24 24 24 24 23 22 22 22 23 24 25 26 26 26 26 26 26 26 27 27 27 27 27 27 27 28 29 29 28 28 28 29 29 30 30 31 31 32 32 32 33 32 33
22 23 23 23 23 23 22 22 22 22 23 24 25 26 27 27 26 26 26 27 27 26 26 26 26 27 27 27 28 28 28 28 28 29 30 29 30 30 31 31 31 32 32 32
22 22 23 23 22 22 22 23 23 23 24 24 25 25 27 27 27 26 26 26 27 27 26 26 26 26 26 26 27 28 28 28 28 29 29 29 29 30 30 30 30 31 31 31
21 22 22 23 22 23 23 23 22 23 24 25 26 26 27 27 27 27 26 26 26 26 26 26 25 25 25 25 26 27 28 28 28 29 29 29 29 30 30 30 30 31 31 31
20 21 23 22 22 22 22 22 22 23 23 24 25 25 26 26 26 26 26 26 26 26 26 26 25 25 25 25 25 26 27 27 27 28 28 28 29 29 29 29 30 30 30 31
Wind_Direction
267 265 264 262 257 257 259 259 258 257 257 256 255 253 252 251 251 249 248 247 247 247 247 245 245 246 247 248 248 247 248 248 249 249 250 251 251 251 252 252 253 256 256 255
270 266 264 260 257 257 259 260 258 258 258 258 257 255 254 252 252 251 250 248 247 246 246 245 245 245 246 247 247 247 247 247 248 249 250 250 250 251 252 252 253 254 256 256
270 266 263 261 258 257 258 261 260 260 259 258 259 256 254 253 253 252 250 249 247 246 245 244 244 244 245 245 246 246 247 247 248 248 249 249 249 251 252 252 253 254 254 255
270 266 265 263 260 259 258 260 261 260 260 259 259 260 254 253 252 252 250 248 246 245 244 243 243 243 245 245 245 245 246 248 248 248 247 248 249 251 252 252 253 253 255 256
272 266 264 262 260 259 259 259 261 262 262 262 260 261 257 255 253 251 249 247 245 244 243 242 241 242 244 245 246 246 247 248 249 248 248 248 248 250 252 252 253 254 255 256
272 266 263 261 259 257 258 259 261 262 263 264 263 262 259 255 252 251 248 246 244 244 243 242 241 241 242 244 245 246 248 249 250 249 248 248 249 250 251 252 253 254 256 257
270 267 263 259 257 255 257 259 262 263 264 265 263 261 260 256 253 252 250 247 245 245 244 242 241 241 241 244 245 246 248 249 249 250 249 249 250 250 252 253 254 255 256 258
273 270 264 259 258 258 256 257 260 262 265 265 263 260 259 257 253 251 250 249 247 246 246 244 242 242 243 244 245 247 249 249 249 250 249 249 250 251 252 254 255 255 256 257
273 271 265 261 259 259 257 257 260 263 264 265 264 259 258 255 252 250 248 248 248 248 247 246 245 244 244 244 244 247 248 249 249 250 249 249 250 251 253 255 256 256 256 257
271 269 266 262 258 258 259 259 259 260 262 265 265 260 257 253 250 248 245 247 249 250 248 246 246 246 245 245 245 246 248 249 249 249 249 250 251 252 254 257 257 256 257 258
269 268 266 262 259 258 258 257 258 260 260 263 264 261 255 254 251 249 246 247 248 249 248 247 246 245 245 246 248 249 251 251 251 250 250 252 253 254 255 257 257 257 257 258
267 267 266 263 260 259 257 256 257 259 261 262 262 259 254 255 255 252 249 247 247 248 248 249 248 248 248 249 251 252 253 253 253 253 252 253 254 255 256 257 257 258 258 259
267 266 267 265 261 259 257 256 257 260 261 261 258 258 255 255 256 254 250 247 247 247 248 249 250 250 250 251 252 253 254 255 255 255 254 254 255 256 257 257 257 259 259 258
265 265 266 266 265 262 260 259 259 260 262 261 256 256 253 254 256 255 252 250 248 247 249 250 250 251 251 251 252 253 254 255 255 256 255 255 255 256 257 257 258 259 259 259
263 264 264 263 263 263 261 260 261 260 262 261 256 254 252 254 256 255 253 252 251 251 251 251 251 251 252 252 254 255 256 256 256 256 256 256 256 257 257 258 258 259 260 259
263 265 264 263 262 263 262 261 261 259 260 259 256 255 255 255 255 254 254 253 251 251 252 252 252 251 252 254 256 257 258 258 258 257 257 256 256 256 257 259 259 260 260 260
263 265 266 266 264 264 264 263 262 260 258 256 255 255 254 254 255 256 255 254 253 252 253 253 253 253 254 255 256 258 258 258 260 260 259 258 257 257 258 259 260 260 260 260
263 264 265 269 267 265 266 266 264 260 255 253 254 254 253 253 255 255 255 254 254 254 254 253 254 255 257 258 258 259 259 259 260 261 260 260 259 257 258 259 259 259 260 261
260 263 265 268 270 269 266 266 265 259 254 253 253 253 253 253 254 254 254 254 254 255 255 255 255 255 258 259 259 259 260 261 262 262 261 261 259 257 258 260 259 259 260 261
259 260 264 267 269 270 270 267 264 259 255 252 253 254 255 255 255 255 255 255 254 255 256 255 256 257 258 259 259 260 261 262 262 262 261 260 259 258 258 259 259 259 260 261
260 261 263 265 267 269 271 270 265 259 257 253 253 253 254 255 255 255 255 255 255 256 256 257 257 258 259 259 260 260 262 262 262 261 260 259 259 259 258 257 258 259 260 261
263 263 264 266 265 269 269 268 266 261 257 255 254 253 254 255 255 255 255 255 255 255 256 257 258 259 260 261 261 260 260 261 261 260 260 259 258 257 256 256 258 260 262 263
262 263 265 265 266 267 267 267 268 264 260 257 256 255 254 254 253 254 254 254 255 256 256 258 260 262 263 263 262 260 260 261 261 259 259 259 259 257 256 257 260 262 263 264
262 262 263 264 265 267 267 267 268 266 263 259 257 255 254 253 253 253 253 254 257 258 258 260 263 264 265 264 263 261 260 261 261 260 260 260 260 259 258 258 260 262 264 265
266 265 264 264 266 265 264 266 267 267 265 263 261 258 255 253 253 252 254 255 256 258 259 260 263 265 266 265 263 262 261 262 261 261 261 261 261 260 260 261 262 263 264 266
268 266 263 262 263 263 264 265 267 267 265 265 263 261 257 254 252 253 254 255 256 258 258 261 263 266 267 266 264 263 263 262 262 262 262 261 261 261 261 262 262 262 264 265
Height
5666 5667 5667 5668 5668 5668 5669 5669 5671 5673 5673 5673 5675 5679 5683 5684 5686 5689 5691 5693 5696 5699 5701 5704 5707 5709 5712 5714 5717 5719 5721 5723 5725 5726 5728 5730 5732 5734 5735 5737 5738 5739 5741 5742
5657 5657 5657 5656 5657 5658 5659 5659 5661 5662 5663 5663 5665 5668 5672 5674 5676 5678 5680 5683 5685 5688 5691 5694 5697 5700 5702 5705 5707 5710 5712 5714 5716 5718 5720 5722 5724 5725 5727 5728 5730 5731 5732 5734
5647 5648 5647 5647 5648 5648 5649 5650 5651 5652 5653 5653 5654 5657 5662 5664 5665 5667 5669 5671 5674 5677 5681 5684 5687 5689 5692 5695 5697 5700 5703 5704 5706 5708 5710 5712 5714 5716 5718 5720 5721 5723 5724 5725
5639 5639 5639 5639 5639 5639 5640 5641 5641 5642 5643 5644 5645 5645 5652 5653 5655 5657 5659 5661 5664 5667 5670 5673 5676 5679 5682 5685 5687 5690 5693 5695 5697 5699 5701 5703 5706 5708 5710 5711 5712 5714 5715 5717
5631 5631 5631 5631 5631 5631 5631 5632 5633 5634 5634 5635 5637 5636 5641 5643 5645 5647 5649 5651 5654 5656 5659 5663 5666 5669 5672 5675 5678 5680 5683 5685 5687 5690 5692 5694 5696 5698 5700 5702 5703 5705 5706 5708
5624 5623 5623 5623 5623 5623 5624 5625 5625 5626 5626 5627 5629 5628 5630 5634 5636 5638 5640 5642 5644 5647 5650 5653 5656 5659 5662 5665 5668 5671 5674 5676 5678 5680 5682 5685 5687 5689 5690 5692 5694 5696 5697 5698
5617 5616 5616 5616 5616 5616 5617 5618 5619 5618 5618 5620 5621 5620 5623 5626 5627 5629 5631 5633 5636 5638 5641 5644 5646 5650 5653 5656 5659 5662 5664 5667 5669 5671 5673 5675 5677 5679 5681 5683 5685 5686 5688 5689
5609 5609 5609 5609 5609 5610 5610 5611 5612 5612 5612 5612 5613 5613 5617 5618 5619 5621 5623 5625 5627 5629 5632 5634 5637 5640 5644 5647 5650 5653 5655 5657 5659 5661 5664 5666 5668 5670 5672 5673 5675 5677 5678 5679
5601 5602 5602 5602 5602 5603 5603 5604 5605 5605 5604 5605 5605 5607 5610 5611 5612 5613 5615 5616 5618 5621 5623 5626 5628 5631 5635 5638 5641 5643 5646 5648 5650 5652 5654 5656 5658 5660 5662 5664 5665 5667 5668 5670
5594 5595 5596 5595 5596 5596 5597 5597 5598 5598 5598 5598 5599 5601 5603 5604 5605 5606 5607 5609 5611 5613 5615 5618 5620 5623 5626 5628 5631 5634 5636 5638 5640 5642 5644 5647 5649 5651 5652 5654 5655 5657 5658 5660
5588 5588 5589 5589 5589 5590 5591 5591 5591 5591 5591 5592 5592 5597 5596 5597 5597 5599 5600 5602 5604 5606 5608 5610 5613 5615 5617 5620 5622 5625 5627 5629 5631 5632 5635 5637 5639 5641 5642 5644 5645 5647 5648 5649
5581 5581 5581 5582 5582 5582 5583 5584 5584 5585 5585 5585 5585 5591 5590 5590 5590 5591 5593 5595 5596 5598 5601 5603 5605 5607 5609 5611 5614 5616 5618 5619 5621 5623 5625 5627 5629 5630 5632 5634 5635 5637 5638 5639
5573 5574 5574 5575 5577 5576 5575 5576 5577 5577 5577 5577 5578 5583 5582 5583 5583 5584 5585 5587 5589 5591 5593 5595 5597 5599 5601 5603 5605 5607 5608 5610 5611 5613 5615 5617 5618 5620 5622 5623 5625 5626 5628 5629
5565 5566 5568 5568 5568 5568 5568 5569 5570 5569 5569 5570 5571 5574 5575 5575 5575 5576 5578 5579 5581 5584 5586 5588 5589 5591 5592 5594 5596 5598 5599 5601 5602 5603 5605 5607 5608 5610 5612 5613 5615 5616 5617 5619
5558 5558 5559 5559 5560 5560 5560 5561 5562 5562 5562 5562 5564 5565 5568 5568 5568 5569 5570 5572 5574 5576 5578 5580 5581 5583 5584 5586 5587 5589 5590 5591 5593 5594 5595 5597 5598 5600 5601 5603 5604 5606 5607 5608
5550 5550 5550 5551 5552 5551 5552 5553 5554 5553 5554 5555 5556 5558 5560 5560 5561 5562 5563 5564 5566 5568 5569 5571 5573 5575 5576 5577 5579 5580 5581 5582 5583 5585 5586 5587 5588 5590 5591 5592 5594 5595 5596 5597
5542 5542 5542 5543 5543 5543 5544 5547 5546 5546 5546 5547 5548 5551 5551 5552 5553 5554 5555 5556 5558 5560 5561 5563 5564 5566 5568 5569 5570 5572 5573 5574 5574 5575 5576 5577 5578 5580 5581 5582 5583 5584 5586 5587
5534 5534 5534 5534 5535 5535 5540 5538 5537 5537 5538 5539 5540 5541 5543 5544 5545 5546 5547 5549 5550 5552 5553 5555 5556 5558 5559 5560 5561 5562 5564 5564 5565 5566 5567 5567 5568 5570 5571 5572 5573 5574 5575 5577
5526 5527 5526 5527 5526 5526 5530 5530 5529 5529 5530 5532 5533 5534 5535 5536 5537 5539 5540 5541 5542 5544 5545 5546 5548 5549 5550 5551 5552 5553 5554 5555 5556 5557 5557 5558 5559 5560 5561 5562 5563 5564 5565 5566
5518 5519 5520 5519 5518 5519 5523 5522 5521 5522 5522 5524 5525 5526 5527 5528 5530 5532 5532 5533 5534 5535 5537 5538 5539 5540 5541 5542 5543 5544 5545 5546 5547 5547 5547 5548 5549 5550 5551 5552 5553 5554 5555 5556
5511 5511 5512 5511 5510 5511 5514 5513 5513 5515 5517 5517 5517 5518 5519 5520 5522 5523 5524 5525 5526 5528 5529 5530 5531 5531 5532 5533 5534 5535 5536 5537 5537 5537 5538 5538 5539 5540 5541 5542 5543 5544 5545 5545
5504 5504 5504 5504 5504 5507 5506 5505 5506 5506 5507 5507 5508 5510 5511 5512 5513 5515 5516 5517 5518 5519 5520 5521 5522 5523 5523 5524 5525 5526 5527 5527 5527 5528 5528 5529 5530 5530 5531 5532 5533 5534 5535 5535
5496 5497 5497 5498 5499 5499 5498 5498 5498 5498 5498 5499 5500 5501 5503 5504 5505 5506 5508 5509 5510 5511 5512 5513 5514 5514 5515 5515 5516 5516 5517 5517 5518 5519 5519 5520 5520 5521 5522 5523 5524 5524 5525 5526
5490 5490 5489 5490 5491 5491 5490 5490 5490 5490 5490 5491 5492 5493 5494 5496 5497 5498 5500 5501 5502 5503 5504 5504 5505 5506 5506 5506 5506 5507 5508 5508 5509 5509 5510 5510 5511 5512 5512 5513 5514 5515 5516 5516
5482 5482 5482 5482 5483 5483 5483 5483 5483 5483 5483 5483 5484 5485 5486 5487 5489 5490 5492 5493 5494 5494 5495 5496 5497 5497 5497 5497 5498 5498 5499 5499 5500 5500 5501 5501 5502 5503 5503 5504 5505 5505 5506 5506
5476 5476 5475 5475 5476 5475 5476 5476 5475 5475 5475 5476 5476 5477 5478 5479 5480 5482 5483 5484 5485 5486 5487 5487 5488 5489 5489 5489 5489 5490 5490 5490 5491 5491 5492 5492 5493 5493 5494 5495 5496 5496 5497 5497